Tracking 28920 objects as of 26-May-2024
HD Live streaming from Space Station
objects crossing your sky now

STARLINK-31620

Track STARLINK-31620 now!
10-day predictions


NORAD ID: 59460
Int'l Code: 2024-068F
Perigee: 450.3 km
Apogee: 452.2 km
Inclination: 43.0 °
Period: 93.5 minutes
Semi major axis: 6822 km
RCS: Unknown
Launch date: April 10, 2024
Source: United States (US)
Launch site: AIR FORCE EASTERN TEST RANGE (AFETR)
Your satellite tracking list
Your tracking list is empty




NASA's NSSDC Master Catalog

Two Line Element Set (TLE):
1 59460U 24068F   24147.30098715 -.00009056  00000-0 -20993-3 0  9993
2 59460  42.9978 148.7014 0001425 258.8012 101.2684 15.40679556  8400
Source of the keplerian elements: AFSPC